Regional Weather Roundup
Issued by NWS

Home | Current Version | Previous Version | Text Only | Print | Product List | Glossary Off
Versions: 1 2 3 4 5 6 7 8 9 10 11 12 13 14 15 16 17 18 19 20 21 22 23 24 25 26 27 28 29 30 31 32 33 34 35 36 37 38 39 40 41 42 43 44 45 46 47 48 49 50

000
ASUS43 KFSD 041410
RWRSD

WEATHER ROUNDUP FOR SOUTH DAKOTA
NATIONAL WEATHER SERVICE SIOUX FALLS SD
900 AM CDT WED MAY 04 2016

NOTE: "FAIR" INDICATES FEW OR NO CLOUDS BELOW 12,000 FEET WITH NO
SIGNIFICANT WEATHER AND/OR OBSTRUCTIONS TO VISIBILITY.


SDZ001>005-009-010-012>017-041500-
NORTHWEST AND NORTH CENTRAL SOUTH DAKOTA

CITY           SKY/WX    TMP DP  RH WIND       PRES   REMARKS
BUFFALO          N/A     57  41  55 SE5       30.08S
FAITH            N/A     54  36  50 S12       30.13F
MOBRIDGE       SUNNY     51  40  65 CALM      30.12R
$$

SDZ012>016-024>037-041>051-057-063-072>074-041500-
SOUTHWEST AND SOUTH CENTRAL SOUTH DAKOTA

CITY           SKY/WX    TMP DP  RH WIND       PRES   REMARKS
RAPID CTY ARPT SUNNY     57  40  52 W5        30.17R
PIERRE         SUNNY     54  33  45 CALM      30.14R
CUSTER         SUNNY     56  34  43 CALM      30.24S
ELLSWORTH AFB  SUNNY     56  40  56 SW6       30.16S
PHILIP         SUNNY     49  42  77 CALM      30.15S
PINE RIDGE       N/A    N/A N/A N/A MISG      30.19R
WINNER         FAIR      51  38  60 W5        30.15R
$$

SDZ004>011-016>023-039-040-041500-
NORTHEAST SOUTH DAKOTA

CITY           SKY/WX    TMP DP  RH WIND       PRES   REMARKS
ABERDEEN       SUNNY     52  37  56 N9        30.13R
WATERTOWN      SUNNY     52  37  56 N6        30.09R
BROOKINGS      SUNNY     49  36  61 N8        30.08R
SISSETON         N/A     51  35  54 NW13      30.08S
$$

SDZ017-020-022-023-036>040-048>070-041500-
SOUTHEAST SOUTH DAKOTA

CITY           SKY/WX    TMP DP  RH WIND       PRES   REMARKS
SIOUX FALLS    SUNNY     53  37  54 NE7       30.08R
HURON          SUNNY     50  36  58 N10       30.12R
CHAMBERLAIN    SUNNY     53  37  54 NW7       30.14R
MITCHELL       SUNNY     49  38  65 NW10      30.12R
YANKTON        SUNNY     48  37  66 NW9       30.09R
$$

ABBREVIATIONS USED IN REMARKS
   TC - TEMPERATURE IN CELSIUS
  WCI - WIND CHILL INDEX
   HX - HEAT INDEX
  VSB - VISIBILITY




USA.gov is the U.S. government's official web portal to all federal, state and local government web resources and services.